TimeMDT,TemperatureF,Dew PointF,Humidity,Sea Level PressureIn,VisibilityMPH,Wind Direction,Wind SpeedMPH,Gust SpeedMPH,PrecipitationIn,Events,Conditions,WindDirDegrees,DateUTC
12:53 AM,71.1,63.0,75,29.95,10.0,East,8.1,-,N/A,,Mostly Cloudy,80,2013-08-03 06:53:00
1:53 AM,66.9,64.0,90,29.95,10.0,SE,10.4,-,N/A,,Clear,130,2013-08-03 07:53:00
2:44 AM,66.2,64.4,94,30.12,6.0,SE,12.7,-,N/A,,Scattered Clouds,130,2013-08-03 08:44:00
2:53 AM,66.9,66.0,97,29.92,5.0,SE,13.8,-,N/A,,Mostly Cloudy,140,2013-08-03 08:53:00
3:08 AM,66.2,66.2,100,30.11,1.8,SSE,18.4,24.2,N/A,,Overcast,160,2013-08-03 09:08:00
3:17 AM,66.2,66.2,100,30.11,1.2,SSE,19.6,26.5,N/A,,Overcast,160,2013-08-03 09:17:00
3:32 AM,66.2,66.2,100,30.11,1.0,South,19.6,24.2,N/A,,Overcast,170,2013-08-03 09:32:00
3:41 AM,66.2,66.2,100,30.11,0.8,SSE,15.0,24.2,N/A,,Mist,150,2013-08-03 09:41:00
3:53 AM,66.9,66.9,100,29.92,1.0,South,17.3,24.2,N/A,,Mist,170,2013-08-03 09:53:00
3:59 AM,66.2,66.2,100,30.12,1.5,South,20.7,25.3,N/A,,Overcast,180,2013-08-03 09:59:00
4:18 AM,66.2,66.2,100,30.12,2.0,South,20.7,25.3,N/A,,Overcast,170,2013-08-03 10:18:00
4:35 AM,68.0,66.2,94,30.12,5.0,South,19.6,25.3,N/A,,Overcast,180,2013-08-03 10:35:00
4:53 AM,68.0,66.0,93,29.92,5.0,SSE,17.3,25.3,N/A,,Overcast,160,2013-08-03 10:53:00
5:53 AM,66.9,66.9,100,29.94,4.0,SSE,11.5,21.9,N/A,,Overcast,160,2013-08-03 11:53:00
6:53 AM,68.0,66.9,96,29.97,5.0,SSE,16.1,24.2,N/A,,Overcast,150,2013-08-03 12:53:00
7:11 AM,68.0,66.2,94,30.14,5.0,SSE,19.6,25.3,N/A,,Mostly Cloudy,150,2013-08-03 13:11:00
7:37 AM,69.8,66.2,88,30.14,8.0,SE,16.1,25.3,N/A,,Overcast,140,2013-08-03 13:37:00
7:53 AM,70.0,66.0,87,29.97,10.0,SSE,18.4,24.2,N/A,,Overcast,150,2013-08-03 13:53:00
8:29 AM,71.6,66.2,83,30.15,10.0,SSE,18.4,25.3,N/A,,Overcast,150,2013-08-03 14:29:00
8:53 AM,73.0,66.0,79,29.99,10.0,SSE,18.4,26.5,N/A,,Mostly Cloudy,150,2013-08-03 14:53:00
9:21 AM,73.4,66.2,78,30.15,10.0,SE,17.3,27.6,N/A,,Scattered Clouds,140,2013-08-03 15:21:00
9:31 AM,73.4,66.2,78,30.15,10.0,SE,19.6,25.3,N/A,,Mostly Cloudy,140,2013-08-03 15:31:00
9:53 AM,75.0,66.9,76,29.99,10.0,SE,16.1,26.5,N/A,,Mostly Cloudy,140,2013-08-03 15:53:00
10:19 AM,75.2,66.2,73,30.16,10.0,SSE,15.0,24.2,N/A,,Mostly Cloudy,150,2013-08-03 16:19:00
10:46 AM,75.2,66.2,73,30.16,10.0,SE,16.1,23.0,N/A,,Scattered Clouds,140,2013-08-03 16:46:00
10:53 AM,75.9,66.0,71,29.99,10.0,SSE,18.4,25.3,N/A,,Scattered Clouds,150,2013-08-03 16:53:00
11:53 AM,79.0,66.0,64,29.99,10.0,SE,13.8,24.2,N/A,,Scattered Clouds,140,2013-08-03 17:53:00
12:06 PM,77.0,66.2,69,30.17,10.0,ESE,12.7,21.9,N/A,,Mostly Cloudy,120,2013-08-03 18:06:00
12:22 PM,77.0,66.2,69,30.18,10.0,ESE,13.8,-,N/A,,Mostly Cloudy,120,2013-08-03 18:22:00
12:38 PM,75.2,66.2,73,30.18,10.0,East,17.3,27.6,N/A,,Overcast,100,2013-08-03 18:38:00
12:53 PM,72.0,66.0,81,30.02,10.0,East,21.9,28.8,N/A,,Overcast,90,2013-08-03 18:53:00
12:57 PM,71.6,66.2,83,30.19,10.0,East,17.3,29.9,N/A,,Overcast,100,2013-08-03 18:57:00
1:18 PM,69.8,66.2,88,30.19,6.0,East,18.4,28.8,N/A,,Overcast,100,2013-08-03 19:18:00
1:35 PM,68.0,66.2,94,30.18,1.8,East,21.9,31.1,N/A,,Overcast,100,2013-08-03 19:35:00
1:41 PM,66.2,66.2,100,30.18,1.0,East,18.4,31.1,N/A,,Overcast,100,2013-08-03 19:41:00
1:49 PM,66.2,66.2,100,30.18,1.5,East,19.6,28.8,N/A,,Overcast,100,2013-08-03 19:49:00
1:53 PM,66.9,66.0,97,30.04,1.2,East,23.0,29.9,N/A,,Overcast,100,2013-08-03 19:53:00
2:02 PM,66.2,66.2,100,30.18,2.0,East,19.6,29.9,N/A,,Overcast,100,2013-08-03 20:02:00
2:12 PM,66.2,64.4,94,30.19,2.0,East,18.4,28.8,N/A,Thunderstorm,Overcast,100,2013-08-03 20:12:00
2:20 PM,66.2,64.4,94,30.19,1.5,East,19.6,32.2,0.00,Rain-Thunderstorm,Light Rain,100,2013-08-03 20:20:00
2:53 PM,64.9,64.0,97,30.05,1.8,East,17.3,28.8,0.00,Rain-Thunderstorm,Light Thunderstorms and Rain,100,2013-08-03 20:53:00
3:05 PM,64.4,64.4,100,30.21,1.0,East,16.1,27.6,0.00,Rain-Thunderstorm,Light Thunderstorms and Rain,100,2013-08-03 21:05:00
3:13 PM,64.4,64.4,100,30.20,0.5,East,19.6,28.8,0.02,Fog-Rain-Thunderstorm,Light Rain,100,2013-08-03 21:13:00
3:53 PM,63.0,63.0,100,30.10,0.2,East,11.5,-,0.04,Fog-Rain-Thunderstorm,Light Thunderstorms and Rain,100,2013-08-03 21:53:00
4:13 PM,62.6,62.6,100,30.24,0.5,ESE,13.8,21.9,0.01,Fog-Rain,Light Rain,110,2013-08-03 22:13:00
4:53 PM,63.0,63.0,100,30.04,0.2,SE,26.5,35.7,0.06,Fog-Rain,Light Rain,140,2013-08-03 22:53:00
5:50 PM,62.6,62.6,100,30.16,1.2,SSE,25.3,40.3,0.01,,Overcast,160,2013-08-03 23:50:00
5:53 PM,63.0,62.1,97,30.03,2.5,SSE,27.6,38.0,0.01,,Overcast,160,2013-08-03 23:53:00
6:00 PM,62.6,62.6,100,30.17,6.0,South,23.0,38.0,N/A,,Overcast,170,2013-08-04 00:00:00
6:18 PM,62.6,62.6,100,30.19,9.0,SSE,21.9,27.6,N/A,,Overcast,150,2013-08-04 00:18:00
6:53 PM,64.0,63.0,96,30.09,7.0,South,10.4,26.5,0.02,Rain,Light Rain,170,2013-08-04 00:53:00
7:18 PM,64.4,62.6,94,30.24,7.0,Variable,6.9,-,0.00,,Overcast,0,2013-08-04 01:18:00
7:28 PM,64.4,62.6,94,30.23,6.0,Calm,Calm,-,0.00,,Overcast,0,2013-08-04 01:28:00
7:53 PM,64.0,63.0,96,30.11,5.0,NNW,8.1,-,0.00,,Mostly Cloudy,330,2013-08-04 01:53:00
8:10 PM,62.6,62.6,100,30.27,5.0,NE,3.5,-,N/A,,Overcast,50,2013-08-04 02:10:00
8:53 PM,63.0,63.0,100,30.15,2.5,South,8.1,-,0.02,Rain,Light Rain,170,2013-08-04 02:53:00
9:05 PM,62.6,62.6,100,30.29,3.0,Calm,Calm,-,0.00,Rain,Light Rain,0,2013-08-04 03:05:00
9:30 PM,62.6,62.6,100,30.29,1.5,SSE,10.4,-,0.00,,Overcast,160,2013-08-04 03:30:00
9:32 PM,62.6,62.6,100,30.29,1.0,South,11.5,-,0.00,,Overcast,170,2013-08-04 03:32:00
9:39 PM,62.6,62.6,100,30.28,0.5,South,11.5,-,0.00,Fog,Fog,170,2013-08-04 03:39:00
9:51 PM,62.6,62.6,100,30.28,1.2,South,16.1,25.3,0.00,,Overcast,180,2013-08-04 03:51:00
9:53 PM,63.0,63.0,100,30.13,1.2,South,15.0,25.3,0.00,,Overcast,180,2013-08-04 03:53:00
9:56 PM,62.6,62.6,100,30.27,2.0,South,20.7,25.3,N/A,,Overcast,180,2013-08-04 03:56:00
10:02 PM,62.6,62.6,100,30.26,4.0,South,20.7,25.3,N/A,,Overcast,180,2013-08-04 04:02:00
10:53 PM,64.0,62.1,93,30.02,10.0,South,23.0,36.8,0.00,,Clear,180,2013-08-04 04:53:00
11:53 PM,64.0,63.0,96,30.05,10.0,NW,13.8,-,N/A,,Scattered Clouds,310,2013-08-04 05:53:00